EDT,Max TemperatureF,Mean TemperatureF,Min TemperatureF,Max Dew PointF,MeanDew PointF,Min DewpointF,Max Humidity, Mean Humidity, Min Humidity, Max Sea Level PressureIn, Mean Sea Level PressureIn, Min Sea Level PressureIn, Max VisibilityMiles, Mean VisibilityMiles, Min VisibilityMiles, Max Wind SpeedMPH, Mean Wind SpeedMPH, Max Gust SpeedMPH,PrecipitationIn, CloudCover, Events, WindDirDegrees
2011-10-1,59,50,41,55,46,37,93,88,82,29.86,29.76,29.68,10,6,1,12,7,22,0.68,8,,338
2011-10-2,55,49,43,52,46,39,96,90,83,29.92,29.88,29.85,10,8,0,6,3,,0.00,8,,354
2011-10-3,57,53,48,54,49,46,100,93,86,30.05,30.01,29.92,10,6,0,7,2,,0.28,8,,345
2011-10-4,59,53,46,52,48,45,93,83,72,30.07,30.03,29.99,10,8,0,12,5,18,0.01,8,,1
2011-10-5,57,47,36,50,44,28,89,67,45,30.21,30.07,30.01,10,10,5,18,8,32,0.00,6,,338
2011-10-6,54,42,30,36,31,27,92,67,41,30.35,30.30,30.26,10,10,0,14,6,17,0.00,0,,27
2011-10-7,63,49,34,45,34,30,89,63,36,30.46,30.41,30.36,10,10,10,10,5,,0.00,1,,144
2011-10-8,75,58,41,54,45,37,89,67,44,30.49,30.43,30.38,10,10,9,9,5,,0.00,0,,123
2011-10-9,79,63,46,55,49,43,93,68,42,30.41,30.37,30.27,10,10,10,12,6,,0.00,0,,141
2011-10-10,73,61,48,57,52,46,89,71,53,30.29,30.23,30.16,10,10,7,9,6,20,0.00,0,,75
2011-10-11,66,56,46,50,45,37,93,65,37,30.27,30.21,30.17,10,10,5,9,5,,0.00,0,,79
2011-10-12,59,54,48,45,43,39,86,70,53,30.21,30.16,30.08,10,10,10,16,12,24,0.00,1,,134
2011-10-13,61,57,52,54,49,45,83,77,71,30.06,29.92,29.79,10,10,4,17,11,27,0.24,8,,164
2011-10-14,64,60,55,61,55,52,93,87,80,29.75,29.59,29.36,10,10,7,18,10,27,0.59,7,,166
2011-10-15,57,52,46,50,41,37,83,65,47,29.54,29.43,29.29,10,10,5,21,13,33,0.23,7,Thunderstorm,214
2011-10-16,57,53,48,39,37,34,77,60,43,29.74,29.67,29.60,10,10,10,17,9,32,0.05,8,,235
2011-10-17,55,48,41,46,38,34,89,68,46,29.67,29.62,29.55,10,10,8,12,7,28,0.13,6,,243
2011-10-18,57,51,45,41,36,32,76,60,43,29.89,29.79,29.68,10,10,10,12,6,17,0.00,5,,223
2011-10-19,57,51,45,45,40,37,83,65,47,29.97,29.89,29.74,10,10,10,20,10,30,0.02,7,,139
2011-10-20,66,58,50,55,49,41,86,66,46,29.58,29.43,29.33,10,10,9,28,15,37,0.03,6,,151
2011-10-21,54,51,48,39,37,36,71,63,54,29.91,29.75,29.60,10,10,10,15,8,23,0.00,8,,225
2011-10-22,52,49,45,39,38,36,83,72,61,30.05,29.99,29.93,10,10,10,9,4,,0.00,8,,245
2011-10-23,50,44,37,39,35,30,89,70,50,30.13,30.09,30.07,10,10,10,12,5,,0.00,8,,174
2011-10-24,63,50,36,45,35,30,86,64,42,30.12,30.02,29.88,10,10,10,17,8,22,0.07,2,,147
2011-10-25,52,44,36,45,35,28,89,67,44,30.00,29.94,29.90,10,10,3,14,8,24,0.00,4,,280
2011-10-26,43,39,34,37,35,28,92,87,82,30.00,29.88,29.78,10,9,3,7,2,,0.00,7,,30
2011-10-27,41,36,30,37,32,28,92,89,85,29.92,29.79,29.75,10,4,0,7,4,,0.38,8,,335
2011-10-28,41,33,25,30,27,21,92,74,55,30.24,30.12,29.94,10,9,1,8,3,,0.00,3,,114
2011-10-29,36,32,28,28,25,21,92,74,56,30.25,30.18,30.05,10,10,2,8,3,16,0.04,4,,127
2011-10-30,43,36,28,28,26,19,92,66,39,30.20,30.04,29.92,10,8,1,13,8,20,0.05,5,,334
2011-10-31,48,38,27,28,26,21,85,60,34,30.37,30.33,30.28,10,10,10,12,7,16,0.00,0,,142